Flag for Bosnia-Herzegovina Weather past 2 weeks in Sarajevo, Bosnia-Herzegovina

Now
36 °F

Light snow. Partly cloudy.


Feels Like: 32 °F
Forecast: 26 / 38 °F
Wind: 5 mph from Northwest

Location: Sarajevo / Butmir

Current Time: Mar 7, 2015 at 1:34:22 AM

Latest Report: Mar 7, 2015 at 12:00 AM


Visibility: 4 mi

Pressure: 30.36 "Hg

Humidity: 75%

Dew point: 28 °F

Location of SarajevoLocation

Historic Weather in Sarajevo — Graph

°F

Sarajevo temperature yesterday

Maximum temperature yesterday: 36 °F (at 10:30 PM)
Minimum temperature yesterday: 32 °F (at 12:00 AM)
Average temperature yesterday: 33 °F

Past Weeks' High & Low Weather Summary

 TemperatureHumidityPressure
High59 °F (Feb 23, 1:00 PM)100% (Feb 24, 4:00 AM)30.36 "Hg (Feb 24, 4:00 AM)
Low19 °F (Feb 20, 5:00 AM)20% (Feb 20, 3:30 PM)29.56 "Hg (Feb 22, 2:30 PM)
Average41 °F80%29.97 "Hg
* Reported Midnight between Feb 19 and Feb 20 — Midnight between Mar 6 and Mar 7, Sarajevo, Weather by CustomWeather, © 2015

Note: Actual official high and low records may vary slightly from our data, if they occured in-between our weather recording intervals... More about our weather records

Advertising

Sarajevo weather history for previous 24 hours

 ConditionsComfort  
Time TempWeatherWind HumidityBarometerVisibility
12:00 AM
Sat, Mar 7
36 °FLight snow. Partly cloudy.5 mph75%30.36 "Hg4 mi
11:00 PM
Fri, Mar 6
36 °FLight snow. Fog.7 mph81%30.36 "Hg3 mi
10:30 PM36 °FLight snow. Fog.7 mph81%30.36 "Hg3 mi
10:00 PM34 °FLight snow. Fog.5 mph87%30.36 "Hg3 mi
9:30 PM34 °FLight snow. Fog.6 mph87%30.36 "Hg3 mi
9:00 PM34 °FLight snow. Fog.5 mph93%30.36 "Hg3 mi
8:30 PM34 °FLight snow. Fog.5 mph93%30.33 "Hg3 mi
8:00 PM34 °FLight snow. Fog.6 mph87%30.33 "Hg3 mi
7:30 PM34 °FLight snow. Fog.7 mph93%30.33 "Hg3 mi
7:00 PM34 °FLight snow. Fog.5 mph93%30.33 "Hg2 mi
6:30 PM34 °FLight snow. Fog.5 mph93%30.33 "Hg2 mi
6:00 PM34 °FLight snow. Fog.2 mph93%30.33 "Hg3 mi
5:30 PM34 °FLight snow. More clouds than sun.2 mph93%30.33 "Hg4 mi
5:00 PM34 °FLight snow. Fog.6 mph93%30.30 "Hg2 mi
4:30 PM34 °FLight snow. Fog.7 mph93%30.30 "Hg1 mi
4:00 PM34 °FLight snow. Fog.8 mph93%30.30 "Hg2 mi
3:30 PM34 °FLight snow. Fog.5 mph87%30.33 "Hg1 mi
3:00 PM34 °FLight snow. Fog.3 mph87%30.33 "Hg2 mi
2:30 PM34 °FLight snow. Broken clouds.6 mph81%30.33 "Hg5 mi
2:00 PM34 °FLight snow. Broken clouds.6 mph81%30.33 "Hg5 mi
1:30 PM34 °FLight snow. Broken clouds.7 mph81%30.33 "Hg5 mi
1:00 PM34 °FLight snow. Fog.9 mph81%30.33 "Hg2 mi
12:30 PM34 °FLight snow. Fog.7 mph87%30.33 "Hg2 mi
12:00 PM34 °FLight snow. Fog.7 mph87%30.36 "Hg2 mi
11:30 AM34 °FLight snow. Fog.7 mph87%30.36 "Hg2 mi
11:00 AM32 °FLight snow. Ice fog.8 mph93%30.36 "Hg1 mi
10:30 AM32 °FLight snow. Ice fog.7 mph93%30.33 "Hg1 mi
10:00 AM32 °FLight snow. Ice fog.6 mph100%30.33 "Hg1 mi
9:30 AM34 °FLight snow. Fog.8 mph93%30.33 "Hg1 mi
9:00 AM34 °FLight snow. Fog.9 mph93%30.33 "Hg1 mi
8:30 AM32 °FLight snow. Ice fog.8 mph100%30.30 "Hg1 mi
8:00 AM32 °FSnow. Ice fog.9 mph100%30.30 "Hg1 mi
7:30 AM32 °FSnow. Ice fog.8 mph100%30.27 "Hg1 mi
7:00 AM32 °FSnow. Ice fog.7 mph100%30.27 "Hg1 mi
6:30 AM32 °FSnow. Ice fog.8 mph100%30.24 "Hg1 mi
6:00 AM32 °FSnow. Ice fog.8 mph100%30.24 "Hg1 mi
5:30 AM32 °FSnow. Ice fog.9 mph100%30.21 "Hg1 mi
5:00 AM32 °FHeavy snow. Ice fog.10 mph100%30.21 "Hg1 mi
4:00 AM32 °FLight snow. Ice fog.8 mph100%30.18 "Hg1 mi
3:00 AM32 °FSnow. Ice fog.7 mph100%30.15 "Hg1 mi
2:00 AM32 °FLight snow. Ice fog.10 mph100%30.15 "Hg1 mi
1:00 AM32 °FSnow. Ice fog.6 mph100%30.15 "Hg1 mi
Weather by CustomWeather, © 2015

See weather overviewHow to use our weather pages